Terug naar catalogus

NOAA 16 DEB

ActiefSSO
NORAD 41509·DEBRIS·🇺🇸 United States

Gelanceerd Sep 21, 2000 vanaf Vandenberg Space Force Base

Loading…

Volgende Passages (komende 24 uur)

TLE

VersSource: Space-Track

Epoch: Sep 11, 2026, 06:02 UTC

1 41509U 00055MH  26254.25155752  .00002560  00000-0  95633-3 0  9992
2 41509  98.7639 355.0503 0017076  87.1617 273.1520 14.32671969542105

Volg NOAA 16 DEB in realtime met AllMySat

Download on the App Store